• In Hungary
  • List of Countries
  • For 7 days
  • Water Temperature
  • Satellite Maps
  • Weather Map
  • News
  • Weather Widgets
  • user-avatar
    Login

    Hourly Weather Kecskemet

    Today, 21 October, Sunday

    Time Temperature Precipitation Wind Pressure Humidity
    00:00 +12°C° 0 mm 4 mps 755 mmHg 69%
    01:00 +12°C° 0 mm 4 mps 755 mmHg 68%
    02:00 +11°C° 0 mm 4 mps 755 mmHg 67%
    03:00 +10°C° 0 mm 5 mps 755 mmHg 66%
    04:00 +10°C° 0 mm 5 mps 755 mmHg 66%
    05:00 +9°C° 0.2 mm 5 mps 755 mmHg 66%
    06:00 +9°C° 0.2 mm 5 mps 755 mmHg 67%
    07:00 +8°C° 0.2 mm 5 mps 755 mmHg 68%
    08:00 +10°C° 0.2 mm 4 mps 755 mmHg 68%
    09:00 +10°C° 0.2 mm 4 mps 755 mmHg 68%
    10:00 +10°C° 0.2 mm 4 mps 755 mmHg 68%
    11:00 +11°C° 0.2 mm 4 mps 755 mmHg 66%
    12:00 +12°C° 0.2 mm 3 mps 755 mmHg 63%
    13:00 +12°C° 0.2 mm 3 mps 755 mmHg 61%
    14:00 +12°C° 0.1 mm 3 mps 755 mmHg 61%
    15:00 +13°C° 0.1 mm 3 mps 755 mmHg 61%
    16:00 +14°C° 0.1 mm 2 mps 755 mmHg 61%
    17:00 +14°C° 0 mm 2 mps 755 mmHg 64%
    18:00 +12°C° 0 mm 3 mps 756 mmHg 67%
    19:00 +12°C° 0 mm 3 mps 756 mmHg 70%
    20:00 +12°C° 0 mm 3 mps 756 mmHg 71%
    21:00 +12°C° 0 mm 3 mps 756 mmHg 71%
    22:00 +12°C° 0 mm 3 mps 757 mmHg 72%
    23:00 +11°C° 0 mm 3 mps 757 mmHg 74%

    Tomorrow, 22 October, Monday

    Time Temperature Precipitation Wind Pressure Humidity
    00:00 +11°C° 0 mm 3 mps 757 mmHg 75%
    01:00 +10°C° 0 mm 3 mps 757 mmHg 76%
    02:00 +10°C° 0 mm 3 mps 757 mmHg 77%
    03:00 +9°C° 0 mm 2 mps 757 mmHg 78%
    04:00 +9°C° 0 mm 2 mps 757 mmHg 78%
    05:00 +9°C° 0 mm 2 mps 757 mmHg 78%
    06:00 +9°C° 0 mm 2 mps 757 mmHg 77%
    07:00 +9°C° 0 mm 2 mps 757 mmHg 76%
    08:00 +10°C° 0 mm 2 mps 757 mmHg 70%
    09:00 +13°C° 0 mm 2 mps 758 mmHg 64%
    10:00 +15°C° 0 mm 2 mps 758 mmHg 57%
    11:00 +16°C° 0 mm 2 mps 757 mmHg 54%
    12:00 +17°C° 0 mm 2 mps 757 mmHg 51%
    13:00 +18°C° 0 mm 2 mps 756 mmHg 48%
    14:00 +17°C° 0 mm 2 mps 756 mmHg 49%
    15:00 +17°C° 0 mm 2 mps 756 mmHg 50%
    16:00 +18°C° 0 mm 1 mps 756 mmHg 50%
    17:00 +16°C° 0 mm 1 mps 756 mmHg 53%
    18:00 +15°C° 0 mm 1 mps 756 mmHg 56%
    19:00 +13°C° 0 mm 1 mps 756 mmHg 60%
    20:00 +13°C° 0 mm 1 mps 756 mmHg 61%
    21:00 +13°C° 0 mm 1 mps 756 mmHg 62%
    22:00 +12°C° 0 mm 1 mps 757 mmHg 63%
    23:00 +12°C° 0 mm 2 mps 757 mmHg 64%

    Day after tomorrow, 23 October, Tuesday

    Time Temperature Precipitation Wind Pressure Humidity
    00:00 +10°C° 0 mm 2 mps 757 mmHg 66%
    01:00 +10°C° 0 mm 2 mps 756 mmHg 68%
    02:00 +10°C° 0 mm 2 mps 756 mmHg 69%
    03:00 +9°C° 0 mm 2 mps 756 mmHg 70%
    04:00 +9°C° 0 mm 2 mps 756 mmHg 71%
    05:00 +9°C° 0 mm 2 mps 756 mmHg 71%
    06:00 +9°C° 0 mm 2 mps 756 mmHg 71%
    07:00 +9°C° 0 mm 2 mps 756 mmHg 70%
    08:00 +10°C° 0 mm 2 mps 756 mmHg 65%
    09:00 +13°C° 0 mm 2 mps 756 mmHg 59%
    10:00 +13°C° 0 mm 3 mps 756 mmHg 54%
    11:00 +14°C° 0 mm 3 mps 756 mmHg 49%
    12:00 +15°C° 0 mm 4 mps 755 mmHg 45%
    13:00 +16°C° 0 mm 5 mps 755 mmHg 40%
    14:00 +15°C° 0 mm 5 mps 754 mmHg 40%
    15:00 +15°C° 0 mm 5 mps 754 mmHg 40%
    16:00 +14°C° 0 mm 5 mps 753 mmHg 39%
    17:00 +13°C° 0 mm 5 mps 753 mmHg 43%
    18:00 +12°C° 0 mm 4 mps 752 mmHg 47%
    19:00 +11°C° 0 mm 4 mps 752 mmHg 52%
    20:00 +11°C° 0 mm 4 mps 752 mmHg 53%
    21:00 +12°C° 0 mm 5 mps 751 mmHg 55%
    22:00 +11°C° 0 mm 6 mps 751 mmHg 56%
    23:00 +11°C° 0 mm 6 mps 750 mmHg 57%

    24 October, Wednesday

    Time Temperature Precipitation Wind Pressure Humidity
    00:00 +11°C° 0 mm 7 mps 750 mmHg 58%
    01:00 +11°C° 0 mm 8 mps 749 mmHg 59%
    02:00 +11°C° 0 mm 8 mps 748 mmHg 59%
    03:00 +12°C° 0 mm 8 mps 747 mmHg 59%
    04:00 +12°C° 0 mm 8 mps 747 mmHg 58%
    05:00 +12°C° 0 mm 8 mps 746 mmHg 59%
    06:00 +12°C° 0 mm 8 mps 746 mmHg 59%
    07:00 +12°C° 0 mm 8 mps 746 mmHg 60%
    08:00 +12°C° 0.4 mm 9 mps 746 mmHg 59%
    09:00 +12°C° 0.4 mm 9 mps 746 mmHg 58%
    10:00 +12°C° 0.4 mm 9 mps 746 mmHg 58%
    11:00 +12°C° 0.2 mm 9 mps 746 mmHg 50%
    12:00 +12°C° 0.2 mm 10 mps 746 mmHg 42%
    13:00 +12°C° 0.2 mm 10 mps 746 mmHg 34%
    14:00 +12°C° 0 mm 9 mps 746 mmHg 34%
    15:00 +11°C° 0 mm 8 mps 747 mmHg 35%
    16:00 +10°C° 0 mm 8 mps 747 mmHg 35%
    17:00 +9°C° 0 mm 7 mps 747 mmHg 38%
    18:00 +8°C° 0 mm 6 mps 748 mmHg 41%
    19:00 +7°C° 0 mm 5 mps 748 mmHg 44%
    20:00 +7°C° 0 mm 5 mps 749 mmHg 46%
    21:00 +6°C° 0 mm 5 mps 749 mmHg 47%
    22:00 +6°C° 0 mm 5 mps 750 mmHg 49%
    23:00 +6°C° 0 mm 5 mps 750 mmHg 50%

    25 October, Thursday

    Time Temperature Precipitation Wind Pressure Humidity
    00:00 +5°C° 0 mm 5 mps 750 mmHg 51%
    01:00 +5°C° 0 mm 5 mps 751 mmHg 53%
    02:00 +5°C° 0 mm 5 mps 751 mmHg 55%
    03:00 +5°C° 0 mm 5 mps 751 mmHg 58%
    04:00 +3°C° 0 mm 5 mps 751 mmHg 61%
    05:00 +4°C° 0 mm 4 mps 751 mmHg 61%
    06:00 +4°C° 0 mm 4 mps 751 mmHg 62%
    07:00 +4°C° 0 mm 4 mps 751 mmHg 63%
    08:00 +6°C° 0 mm 4 mps 751 mmHg 60%
    09:00 +7°C° 0 mm 5 mps 752 mmHg 57%
    10:00 +9°C° 0 mm 5 mps 752 mmHg 55%
    11:00 +9°C° 0.2 mm 6 mps 751 mmHg 61%
    12:00 +8°C° 0.2 mm 6 mps 751 mmHg 67%
    13:00 +8°C° 0.2 mm 7 mps 750 mmHg 73%
    14:00 +10°C° 0 mm 6 mps 750 mmHg 71%
    15:00 +11°C° 0 mm 6 mps 750 mmHg 70%
    16:00 +13°C° 0 mm 5 mps 749 mmHg 69%
    17:00 +12°C° 0 mm 5 mps 749 mmHg 70%
    18:00 +12°C° 0 mm 5 mps 749 mmHg 71%
    19:00 +12°C° 0 mm 5 mps 750 mmHg 71%
    20:00 +10°C° 0 mm 5 mps 750 mmHg 72%
    21:00 +10°C° 0 mm 5 mps 750 mmHg 72%
    22:00 +10°C° 0 mm 5 mps 750 mmHg 72%
    23:00 +9°C° 0 mm 5 mps 750 mmHg 73%

    26 October, Friday

    Time Temperature Precipitation Wind Pressure Humidity
    00:00 +9°C° 0 mm 5 mps 750 mmHg 75%
    01:00 +10°C° 0 mm 4 mps 751 mmHg 76%
    02:00 +8°C° 0 mm 4 mps 751 mmHg 79%
    03:00 +9°C° 0 mm 3 mps 750 mmHg 81%
    04:00 +8°C° 0 mm 3 mps 750 mmHg 83%
    05:00 +8°C° 0 mm 3 mps 750 mmHg 83%
    06:00 +8°C° 0 mm 3 mps 750 mmHg 84%
    07:00 +8°C° 0 mm 3 mps 751 mmHg 84%
    08:00 +10°C° 0 mm 3 mps 750 mmHg 75%
    09:00 +12°C° 0 mm 3 mps 750 mmHg 66%
    10:00 +14°C° 0 mm 3 mps 750 mmHg 56%
    11:00 +15°C° 0 mm 4 mps 750 mmHg 53%
    12:00 +17°C° 0 mm 4 mps 749 mmHg 50%
    13:00 +17°C° 0 mm 5 mps 749 mmHg 47%
    14:00 +18°C° 0 mm 4 mps 748 mmHg 48%
    15:00 +18°C° 0 mm 4 mps 748 mmHg 50%
    16:00 +18°C° 0 mm 3 mps 747 mmHg 51%
    17:00 +18°C° 0 mm 4 mps 747 mmHg 51%
    18:00 +18°C° 0 mm 4 mps 747 mmHg 52%
    19:00 +16°C° 0 mm 5 mps 747 mmHg 52%
    20:00 +16°C° 0 mm 5 mps 747 mmHg 52%
    21:00 +16°C° 0 mm 6 mps 746 mmHg 53%
    22:00 +16°C° 0 mm 6 mps 746 mmHg 53%
    23:00 +16°C° 0 mm 6 mps 746 mmHg 56%
    Show more